Location: Gleizolles
(44.4833°N, 6.7667°E)
Time: 07:51:33
(UTC+00:00)

CAS-4A - Visible Passes

Search period start: 06 December 2022 00:00
Search period end: 16 December 2022 00:00
Orbit: 517 x 534 km, 43.0° (Epoch: 05 December)

Date Brightness Start Highest point End Pass type
(mag) Time Alt. Az. Time Alt. Az. Time Alt. Az.
06 Dec ? 03:53:38 13° SE 03:53:38 13° SE 03:55:22 10° ESE visible
06 Dec ? 05:28:52 10° SW 05:32:42 42° SSE 05:36:34 10° E visible
07 Dec ? 03:40:57 13° ESE 03:40:57 13° ESE 03:41:51 10° ESE visible
07 Dec ? 05:16:06 19° SW 05:18:45 46° SSE 05:22:40 10° E visible
08 Dec ? 03:28:05 10° ESE 03:28:05 10° ESE 03:28:12 10° ESE visible
08 Dec ? 05:03:13 31° SW 05:04:47 51° SSE 05:08:45 10° E visible
09 Dec ? 04:50:13 49° SSW 04:50:49 56° SSE 04:54:49 10° E visible
10 Dec ? 04:37:07 58° SSE 04:37:07 58° SSE 04:40:53 10° E visible
10 Dec ? 06:12:37 10° W 06:16:40 70° S 06:20:43 10° ESE visible
11 Dec ? 04:23:57 44° ESE 04:23:57 44° ESE 04:26:56 10° E visible
11 Dec ? 05:59:04 12° W 06:02:42 67° S 06:06:45 10° ESE visible
12 Dec ? 04:10:44 31° E 04:10:44 31° E 04:12:58 10° E visible
12 Dec ? 05:45:51 18° W 05:48:44 63° S 05:52:45 10° ESE visible
13 Dec ? 03:57:29 22° E 03:57:29 22° E 03:59:00 10° E visible
13 Dec ? 05:32:36 25° W 05:34:45 59° SSW 05:38:45 10° ESE visible
14 Dec ? 03:44:12 15° E 03:44:12 15° E 03:45:01 10° E visible
14 Dec ? 05:19:19 34° WSW 05:20:45 55° SSW 05:24:43 10° ESE visible
15 Dec ? 03:30:56 11° E 03:30:56 11° E 03:31:02 10° E visible
15 Dec ? 05:06:03 44° SW 05:06:45 50° SSW 05:10:40 10° ESE visible
